Tracking 35237 objects as of 5-Sep-2026
HD Live streaming from Space Station
objects crossing your sky now

COSMOS 1375 DEB

Track COSMOS 1375 DEB now!
10-day predictions


NORAD ID: 16385
Int'l Code: 1982-055Z
Launch date: June 6, 1982
Source: Commonwealth of Independent States (former USSR) (CIS)
Launch site: PLESETSK MISSILE AND SPACE COMPLEX (PKMTR)

Note: This is SATELLITE DEBRIS
Your satellite tracking list
Your tracking list is empty




NASA's NSSDC Master Catalog

Two Line Element Set (TLE):
1 16385U 82055Z   26248.29758112  .00000335  00000-0  35158-3 0  9996
2 16385  65.8297 322.0624 0035772 244.1291 177.7328 13.87569768 57443
Source of the keplerian elements: AFSPC